This is the latest recevied weather packets stored in our database for station/object N8RJH-13. If no packets are shown the sender has not sent any weather packets the latest 10 day(s).
| Time | Temp. | Humidity | Pressure | Rain* | Wind** | Luminosity | Snow |
|---|---|---|---|---|---|---|---|
| 1787771548 | 29.44° C | 68% | 1019.6 hPa | - | - | - | - |
| 1787770917 | 29.44° C | 67% | 1019.7 hPa | - | - | - | - |
| 1787770297 | 30° C | 68% | 1019.7 hPa | - | - | - | - |
| 1787769666 | 29.44° C | 69% | 1019.8 hPa | - | - | - | - |
| 1787769027 | 29.44° C | 69% | 1020 hPa | - | - | - | - |
| 1787768406 | 29.44° C | 70% | 1020 hPa | - | - | - | - |
| 1787767776 | 28.89° C | 70% | 1020.1 hPa | - | - | - | - |
| 1787767167 | 28.89° C | 71% | 1020.1 hPa | - | - | - | - |
| 1787766537 | 28.33° C | 70% | 1020.4 hPa | - | - | - | - |
| 1787765917 | 28.33° C | 70% | 1020.5 hPa | - | - | - | - |
| 1787765309 | 28.33° C | 70% | 1020.5 hPa | - | - | - | - |
| 1787764687 | 28.33° C | 71% | 1020.4 hPa | - | - | - | - |
| 1787764076 | 28.33° C | 70% | 1020.5 hPa | - | - | - | - |
| 1787763445 | 27.78° C | 70% | 1020.6 hPa | - | - | - | - |
| 1787762826 | 27.78° C | 72% | 1020.8 hPa | - | - | - | - |
| 1787762197 | 27.78° C | 73% | 1020.9 hPa | - | - | - | - |
| 1787761557 | 27.22° C | 75% | 1020.9 hPa | - | - | - | - |
| 1787760926 | 26.67° C | 75% | 1021.3 hPa | - | - | - | - |
| 1787760297 | 26.67° C | 75% | 1021.1 hPa | - | - | - | - |
| 1787759667 | 26.67° C | 77% | 1021.2 hPa | - | - | - | - |
| 1787759037 | 26.11° C | 77% | 1021.4 hPa | - | - | - | - |
| 1787758407 | 25.56° C | 78% | 1021.5 hPa | - | - | - | - |
| 1787757787 | 25.56° C | 78% | 1021.6 hPa | - | - | - | - |
| 1787757180 | 25° C | 79% | 1021.5 hPa | - | - | - | - |
| 1787756547 | 24.44° C | 80% | 1021.5 hPa | - | - | - | - |
* Rain since midnight (hover to see other rain measurements)
** Current wind speed in m/s (hover to see current wind gust speed)